Terug naar catalogus

STARLINK-37101

ActiefCommunicatieVLEO
NORAD 68234·PAYLOAD·🇺🇸 United States

Gelanceerd Mar 17, 2026 vanaf Vandenberg Space Force Base

Loading…

Volgende Passages (komende 24 uur)

TLE

VersSource: CelesTrak SupGP

Epoch: Sep 14, 2026, 22:53 UTC

1 68234C 26054C   26257.95395833 -.00053528  00000+0 -15815-2 0  2570
2 68234  53.1564 127.9068 0001207  90.7730  68.2872 15.34416075    18

Volg STARLINK-37101 in realtime met AllMySat

Download on the App Store